Find CICERO-1

NORAD ID: 42843 Int'l Des: NNA 2017-042 Owner: GEOOPT Country: US operational
LEOCIRCULARRETROGRADESSO

Current View

Loading 3D Globe...

About CICERO-1

Description loading...

Upcoming Passes

Passes for default location (London). Set your location on the main map for personalized predictions.

Altitude History

Loading altitude history...

Two-Line Element Set

1 42843U 17042U 26149.38978451 .00003483 00000-0 27576-3 0 9990
2 42843 97.4604 306.8176 0014514 140.7514 219.4766 15.01143671483808
Epoch: May 29, 2026 • Age: 27 hours

Current Status

Altitude 592.4 km
Velocity 7.56 km/s
Sub-Earth Point -67.12°S, 41.11°E
Launch Date Jul 14, 2017
Age 8.8 years
Type other

Technical Details

Classification Payload
Mass 10.00 kg
Dry Mass 10.00 kg
Total Mass 10.00 kg
Length 0.30 m
Diameter 0.20 m
Span 0.60 m
Shape Box+2 pan
Manufacturer TYVAK
Bus Type Cubesat 6U
Phase Status In Orbit
Owner/State GEOOPT/US

Most Searched